Weather History for Richmond, VA

Change the Weather History Date:

Tuesday, May 28, 2013

  Actual Average Record
Temperature  
Mean Temperature 74 °F 70 °F  
Max Temperature 88 °F 81 °F 100 °F (1941)
Min Temperature 60 °F 59 °F 38 °F (1961)
Degree Days  
Heating Degree Days 0 1  
Month to date heating degree days 85 71  
Since 1 July heating degree days 3690 3763  
Cooling Degree Days 9 6  
Month to date cooling degree days 105 98  
Year to date cooling degree days 171 140  
Growing Degree Days 24 (Base 50)    
Moisture  
Dew Point 60 °F    
Average Humidity 62    
Maximum Humidity 78    
Minimum Humidity 46    
Precipitation  
Precipitation 0.00 in 0.13 in 1.38 in (1917)
Month to date precipitation 2.50 3.39  
Year to date precipitation 18.88 16.50  
Snow  
Snow 0.00 in 0.00 in 0.00 in (2002)
Month to date snowfall 0.0 0.0  
Since 1 July snowfall 8.6 10.3  
Snow Depth 0.00 in    
Sea Level Pressure  
Sea Level Pressure 30.17 in    
Wind  
Wind Speed 11 mph (SSW)    
Max Wind Speed 20 mph    
Max Gust Speed 24 mph    
Visibility 10 miles    
Events      
T = Trace of Precipitation, MM = Missing Value Source: NWS Daily Summary

Daily Weather History Graph

Daily Weather History Graph

Search for Another Location

Airport:

Trip Planner

Search our weather history database for the weather conditions in past years. The results will help you decide how hot, cold, wet, or windy it might be!

Date:

Astronomy

May. 28, 2013 Rise Set
Actual Time 5:51 AM EDT 8:22 PM EDT
Civil Twilight 5:21 AM EDT 8:52 PM EDT
Nautical Twilight 4:43 AM EDT 9:30 PM EDT
Astronomical Twilight 4:01 AM EDT 10:11 PM EDT
Moon 11:47 PM EDT 9:35 AM EDT
Length of Visible Light 15h 31m
Length of Day
14h 30m
Waning Gibbous, 83% of the Moon is Illuminated
May 28
Waning Gibbous
May 31
Last Quarter
Jun 8
New
Jun 16
First Quarter
Jun 23
Full

Hourly Weather History & Observations

Time (EDT) Temp. Heat Index Dew Point Humidity Pressure Visibility Wind Dir Wind Speed Gust Speed Precip Events Conditions
12:54 AM 62.1 °F - 54.0 °F 75% 30.21 in 10.0 mi Calm Calm - N/A   Mostly Cloudy
1:54 AM 61.0 °F - 54.0 °F 78% 30.20 in 10.0 mi South 4.6 mph - N/A   Mostly Cloudy
2:54 AM 61.0 °F - 54.0 °F 78% 30.19 in 10.0 mi South 8.1 mph - N/A   Scattered Clouds
3:54 AM 63.0 °F - 54.0 °F 72% 30.19 in 10.0 mi South 3.5 mph - N/A   Scattered Clouds
4:54 AM 63.0 °F - 54.0 °F 72% 30.19 in 10.0 mi SSW 9.2 mph - N/A   Mostly Cloudy
5:54 AM 61.0 °F - 54.0 °F 78% 30.20 in 10.0 mi South 8.1 mph - N/A   Scattered Clouds
6:54 AM 63.0 °F - 55.9 °F 78% 30.22 in 10.0 mi SSW 10.4 mph - N/A   Scattered Clouds
7:54 AM 66.9 °F - 57.0 °F 70% 30.23 in 10.0 mi SSW 11.5 mph - N/A   Scattered Clouds
8:54 AM 69.1 °F - 59.0 °F 70% 30.23 in 10.0 mi SSW 12.7 mph - N/A   Mostly Cloudy
9:54 AM 73.9 °F - 61.0 °F 64% 30.22 in 10.0 mi SSW 11.5 mph - N/A   Mostly Cloudy
10:54 AM 78.1 °F - 62.1 °F 58% 30.21 in 10.0 mi SSW 12.7 mph - N/A   Mostly Cloudy
11:54 AM 80.1 °F 81.5 °F 63.0 °F 56% 30.19 in 10.0 mi SSW 17.3 mph 24.2 mph N/A   Mostly Cloudy
12:54 PM 82.9 °F 84.4 °F 64.0 °F 53% 30.18 in 10.0 mi SSW 15.0 mph 18.4 mph N/A   Mostly Cloudy
1:54 PM 86.0 °F 87.3 °F 64.0 °F 48% 30.16 in 10.0 mi SSW 13.8 mph 23.0 mph N/A   Mostly Cloudy
2:54 PM 86.0 °F 87.6 °F 64.9 °F 49% 30.15 in 10.0 mi SSW 16.1 mph 21.9 mph N/A   Mostly Cloudy
3:54 PM 87.1 °F 88.3 °F 64.0 °F 46% 30.14 in 10.0 mi SSW 13.8 mph - N/A   Mostly Cloudy
4:54 PM 84.9 °F 86.6 °F 64.9 °F 51% 30.13 in 10.0 mi South 13.8 mph - N/A   Mostly Cloudy
5:54 PM 84.9 °F 86.1 °F 64.0 °F 49% 30.12 in 10.0 mi South 13.8 mph - N/A   Mostly Cloudy
6:54 PM 84.0 °F 84.5 °F 62.1 °F 47% 30.12 in 10.0 mi SW 17.3 mph - N/A   Mostly Cloudy
7:54 PM 81.0 °F 82.5 °F 64.0 °F 56% 30.12 in 10.0 mi South 11.5 mph - N/A   Mostly Cloudy
8:54 PM 77.0 °F - 64.0 °F 64% 30.13 in 10.0 mi South 10.4 mph - N/A   Mostly Cloudy
9:54 PM 75.9 °F - 63.0 °F 64% 30.14 in 10.0 mi South 8.1 mph - N/A   Scattered Clouds
10:54 PM 73.9 °F - 64.0 °F 71% 30.16 in 10.0 mi South 9.2 mph - N/A   Scattered Clouds
11:54 PM 73.0 °F - 63.0 °F 71% 30.15 in 10.0 mi South 10.4 mph - N/A   Scattered Clouds